www.pogodaiklimat.ru

Погода и климат >> Архив погоды >> Иран >> Bam


ПОГОДА в Bam

  • Прогноз погоды в Bam
  • Монитор погоды в Bam
  • Климат города

АРХИВ ПОГОДЫ в Bam

Время (UTC), дата Ветер
(напр.,м/с)
 
Видим.   Явления Облачность Т
(С)
Тd
(С)
f
(%)
Тe
(С)
Тes
(С)
Комфортность P
(гПа)
Po
(гПа)
Тmin
(С)
Tmax
(С)
R
(мм)
R24
(мм)
S
(см)
00 7.12 З 2 10 км ясно +16.0 +0.2 34 +16 +16 1006.0 889.4
03 7.12 З 2 10 км ясно +15.6 -0.8 33 +16 +16 1007.7 889.9 +13.0
06 7.12 ЮЗ 2 10 км ясно +27.0 -1.5 15 +25 +30 комфорт 1007.2 891.0
09 7.12 ЮЗ 4 10 км 4/4 1050 м
[Sc]
+28.3 -1.7 14 +26 +29 жарко 1004.2 888.9
12 7.12 З 5 10 км 3/3 1200 м
[Cu hum]
+25.7 +0.9 20 +24 +25 комфорт 1004.5 888.8
15 7.12 З 3 10 км ясно +20.8 +4.7 35 +22 +22 комфорт 1007.2 890.4 +28.9
18 7.12 СЗ 3 10 км ясно +18.6 +6.1 44 +19 +19 1006.9 891.6 -42.3
21 7.12 З 5 10 км ясно +17.8 +4.7 42 +17 +17 891.2
00 8.12 СЗ 3 10 км ясно +16.6 +2.6 39 +16 +16 1007.6 891.7
03 8.12 З 3 10 км ясно +14.0 +1.0 41 +13 +13 1010.6 892.9 +14.0
06 8.12 штиль 0 10 км ясно +21.0 -1.8 22 +20 +28 1011.4 894.5
09 8.12 СВ 2 10 км ясно +22.3 -1.1 21 +21 +29 комфорт 1009.2 892.6
12 8.12 СВ 3 10 км ясно +22.3 -0.8 21 +21 +22 комфорт 1008.4 891.7
15 8.12 С 1 10 км ясно +17.0 +0.1 32 +18 +18 1010.8 892.5 +23.6
18 8.12 З 2 10 км ясно +13.6 +0.5 41 +13 +13 1011.3 893.5
21 8.12 З 2 10 км ясно +10.6 -0.8 45 +10 +10 1011.6 893.8
00 9.12 З 3 10 км ясно +11.8 -4.9 31 +11 +11 1012.9 894.7
03 9.12 З 3 10 км ясно +10.8 -6.3 30 +10 +10 1016.1 896.3 +9.8
06 9.12 З 2 10 км ясно +18.4 -3.4 22 +19 +24 1017.0 897.9
09 9.12 С 2 10 км ясно +20.0 -3.4 20 +20 +28 1014.7 895.7
12 9.12 С 3 10 км ясно +18.8 -3.4 22 +19 +20 1014.1 895.1
15 9.12 штиль 0 10 км ясно +15.0 -2.6 30 +15 +15 1015.9 895.8 +20.6
18 9.12 З 2 10 км ясно +11.4 -3.3 36 +11 +11 1016.0 896.7
21 9.12 З 3 10 км ясно +10.9 -2.9 38 +10 +10 1015.3 896.6
00 10.12 З 3 10 км ясно +10.0 -2.8 41 +8 +8 1015.4 895.9
03 10.12 З 4 10 км 4/0
[Ci fib]
+9.8 -3.0 40 +8 +8 1017.8 897.2 +8.6
06 10.12 З 2 10 км 5/0
[Ci sp]
+16.8 -3.8 24 +17 +22 1017.8 897.9
09 10.12 СВ 1 10 км 4/0
[Ci sp]
+18.6 -3.8 22 +20 +28 1015.0 895.7
12 10.12 СВ 3 10 км 3/0
[Ci sp]
+18.5 -2.7 24 +19 +20 1013.9 894.6
15 10.12 С 1 10 км ясно +14.6 -2.1 32 +15 +15 1016.5 896.1 +20.5
18 10.12 штиль 0 10 км ясно +12.2 -2.0 37 +12 +12 1015.9 896.4
21 10.12 З 2 10 км ясно +10.3 -2.3 41 +9 +9 1014.7 895.2
00 11.12 З 3 10 км ясно +9.5 -2.5 43 +8 +8 1014.4 894.9
03 11.12 З 3 10 км ясно +9.0 -2.6 44 +7 +7 1016.7 896.1 +8.7
06 11.12 СЗ 2 10 км ясно +16.0 -2.2 29 +16 +22 1017.9 898.0
09 11.12 В 2 10 км ясно +18.6 -2.7 23 +19 +27 1015.8 896.3
12 11.12 С 2 10 км ясно +18.8 -2.7 23 +19 +21 1015.9 896.3
15 11.12 штиль 0 10 км ясно +14.3 -1.9 33 +14 +14 1018.9 898.0 +20.1
18 11.12 З 2 10 км ясно +11.5 -2.7 37 +11 +11 1018.6 898.5
21 11.12 З 4 10 км ясно +10.5 -3.0 39 +9 +9 1017.9 898.2
00 12.12 З 3 10 км ясно +9.9 -5.0 35 +8 +8 1018.2 898.4
03 12.12 З 3 10 км ясно +8.5 -4.4 40 +7 +7 1020.8 899.5 +8.2
06 12.12 З 3 10 км ясно +17.9 -8.3 16 +18 +22 1020.5 900.5
09 12.12 В 2 10 км ясно +20.6 -5.4 17 +21 +28 комфорт 1017.9 898.6
12 12.12 В 2 10 км ясно +21.1 -6.3 15 +20 +21 1017.3 898.1
15 12.12 С 2 10 км ясно +15.9 -3.2 27 +16 +16 1020.4 899.5 +22.4
18 12.12 З 2 10 км ясно +11.6 -3.9 34 +11 +11 1020.0 900.0
21 12.12 З 3 10 км ясно +11.8 -5.0 30 +11 +11 899.2
00 13.12 З 3 10 км ясно +10.6 -5.8 31 +9 +9 1018.1 898.8
06 13.12 штиль 0 10 км ясно +18.7 -6.8 17 +19 +26 1019.9 900.1
09 13.12 В 2 10 км ясно +21.6 -5.8 15 +20 +28 1016.4 897.6
12 13.12 В 2 10 км ясно +22.0 -6.1 15 +21 +22 комфорт 1015.7 896.9
15 13.12 З 2 10 км ясно +15.2 -3.6 27 +15 +15 1019.0 898.2 +24.1
18 13.12 З 2 10 км ясно +12.4 -5.1 29 +12 +12 1018.5 899.0
21 13.12 З 3 10 км ясно +11.5 -8.3 24 +10 +10 898.2

 

Местоположение метеостанции Bam (Иран): широта 29.10 долгота 58.40 высота над уровнем моря 1067 м.

В архиве по умолчанию представлена погода в Bam за последнюю неделю. Архивные данные за месяц целиком и за предыдущие месяцы, начиная с января 2011 года, Вы можете получить, выбрав интересующий диапазон дат из раскрывающегося списка и нажав кнопку "Ввод!".


*Определитесь, кто Вы:
робот инопланетянин человек

Внимание! Время в таблицах - всемирное. Для получения местного времени необходимо прибавить поправку, которая в Bam равна 3.5 ч.

Смотрите также архив погоды в соседних городах и на ближайших метеорологических станциях:

Погода в Kahnuj (Иран) (143 км)
Погода в Baft (Иран) (178 км)
Погода в Kerman (Иран) (188 км)
Погода в Zahedan (Иран) (244 км)
Погода в Sirjan (Иран) (263 км)
Погода в Bandarabbass (Иран) (289 км)
Погода в Iranshahr (Иран) (309 км)
Погода в Nehbandan (Иран) (312 км)
Погода в Zabol (Иран) (367 км)
Погода в Khasab (Оман) (385 км)

Пояснения к столбцам:

Ветер - указаны скорость ветра в м/с - средняя за 10 мин, порывы в срок и между сроками (в фигурных скобках) и направление, откуда дует ветер: С - северный, СВ - северо-восточный, В - восточный, ЮВ - юго-восточный, Ю - южный, ЮЗ - юго-западный, З - западный, СЗ - северо-западный.
Видимость - горизонтальная дальность видимости в метрах или километрах. При видимости от 1 до 10 км при отсутствии осадков обычно наблюдается дымка, при ухудшении видимости до 1 км и менее - туман. В сухую погоду видимость может ухудшаться дымом, пылью или мглою.
Явления - указаны атмосферные явления, наблюдавшиеся в срок или в последний час перед сроком; фигурными скобками обозначены явления, наблюдавшиеся между сроками (за 1-3 часа до срока); квадратными скобками обозначены град или гололедные отложения с указанием их диаметра в мм.
Облачность - указаны через наклонную черту общая и нижняя облачность в баллах и высота нижней границы облаков в метрах; квадратными скобками обозначены формы облаков: Ci - перистые, Cs - перисто-слоистые, Cc - перисто-кучевые, Ac - высококучевые, As - высокослоистые, Sc - слоисто-кучевые, Ns - слоисто-дождевые, Cu - кучевые, Cb - кучево-дождевые. Подробнее классификацию облаков см. в Атласе облаков (PDF).
T - Температура воздуха - температура, измеренная на высоте 2 м над землей.
Td - Температура точки росы - температура, при понижении до которой содержащийся в воздухе водяной пар достигнет насыщения.
f - Относительная влажность воздуха - влажноcть воздуха, измеренная на высоте 2 м над землей.
Te - Эффективная температура - температура, которую ощущает одетый по сезону человек в тени. Характеристика душности погоды. При расчете учитывается влияние влажности воздуха и скорости ветра на теплоощущения человека.
Tes - Эффективная температура на солнце - температура, которую ощущает человек, с поправкой на солнечный нагрев. Характеристика знойности погоды. Зависит от высоты солнца над горизонтом, облачности и скорости ветра. Ночью, в пасмурную погоду, а также при ветре 12 м/с и более поправка равна нулю.
P - Атмосферное давление - приведенное к уровню моря атмосферное давление.
Po - Атмосферное давление - измеренное на уровне метеостанции атмосферное давление.
Tmin - Минимальная температура - минимум температуры воздуха на высоте 2 м над землей.
Tmax - Максимальная температура - максимум температуры воздуха на высоте 2 м над землей.
R - Количество осадков - Количество выпавших осадков за период времени, мм. При наведении курсора мыши на число - период времени, за который выпало указанное количество осадков.
R24 - Количество осадков - Количество выпавших осадков за 24 часа, мм.
S - Снежный покров - Высота снежного покрова, см. При наведении курсора мыши на число - состояние снежного покрова и степень покрытия местности в баллах.